weather.gov     
National Weather Service

Regional Weather Roundup
NWS Homepage
This page is being discontinued on March 12, 2014.
The same data is available at this site. Please update your bookmarks.
Thank you, and we apologize for the inconvenience.
Please send an email to SR-SRH.Webmaster@noaa.gov with any concerns.


Current Version
Previous Version:    01  02  03  04  05  06  07  08  09  10  11  12  13  14  15  16  17  18  19  20  21  22  23  24  25  26  
[Printable]
669
ASUS42 KTBW 012210
RWRFL
FLORIDA REGIONAL WEATHER ROUNDUP
NATIONAL WEATHER SERVICE TAMPA BAY RUSKIN FL
600 PM EDT FRI AUG 01 2014

NOTE: "FAIR" INDICATES FEW OR NO CLOUDS BELOW 12,000 FEET WITH NO
SIGNIFICANT WEATHER AND/OR OBSTRUCTIONS TO VISIBILITY.


FLZ001>010-012>015-112-114-115-012300-
PANHANDLE FLORIDA

CITY           SKY/WX    TMP DP  RH WIND       PRES   REMARKS
PENSACOLA      PTSUNNY   84  64  50 NW3       29.96F
PENSACOLA NAS  CLOUDY    82  70  66 SW5       29.96S
MILTON NAS     PTSUNNY   84  67  56 NW6       29.96F
CRESTVIEW      CLOUDY    88  66  48 N5        29.98F
DUKE FIELD     PTSUNNY   87  66  49 NW6       29.96S
VALPARAISO     PTSUNNY   85  68  55 VRB3      29.96S
MARY ESTHER    PTSUNNY   85  66  52 SW6       29.95F
TRI COUNTY     FAIR      86  68  54 CALM      29.96F
PANAMA CITY    FAIR      87  64  46 SW8       29.94F
TYNDALL AFB    DRIZZLE   87  66  49 W10       29.96F
APALACHICOLA   CLOUDY    84  69  60 W10       29.94F

STATION/POSITION SKY/WX   TEMP    WIND        PRES    WAVE   SWELL
                          AIR SEA DIR/SP/G            HT/PER HT/PER
                          (F)     (DEG/KT/KT) (MB)    (FT/S) (FT/S)
30.1N   87.6W              82 85  260/  2/  2 1015.0F   1
29.2N   88.2W              83 87  330/  4/  6 1015.1F
28.8N   86.0W              83 87   20/  2/  4 1015.0    1
PANAMA CITY BEAC           83 82  270/ 10/ 11 1014.4F
CAPE SAN BLAS    NOT AVBL
TOWER C                    81     290/ 11/ 11 1014.3S
28.5N   84.5W              83 86  290/  6/  8 1014.5F   1/ 6

$$
FLZ011-016>038-118-127-128-134-139-239-012300-
NORTH FLORIDA

CITY           SKY/WX    TMP DP  RH WIND       PRES   REMARKS
MARIANNA       PTSUNNY   88  69  53 NW8       29.94F
TALLAHASSEE    PTSUNNY   90  66  45 S7        29.94S
PERRY          MOSUNNY   86  66  51 SW8       29.95S
CROSS CITY       N/A     87  69  54 W7        29.95F
GAINESVILLE    MOSUNNY   90  65  43 NW13      29.94F
MAYPORT NAS    PTSUNNY   88  74  63 SE13      29.94S HX  96
JACKSONVILLE   PTSUNNY   88  75  65 NE14      29.93S HX  97
JAX NAS        PTSUNNY   93  64  38 S8        29.94S
JAX CRAIG      MOSUNNY   87  73  62 SE13      29.93F
JAX CECIL      SUNNY     90  64  43 VRB5      29.94F
FERNANDINA BEA FAIR      88  73  62 E7        29.93F HX  96
ST AUGUSTINE   PTSUNNY   90  73  57 SE13      29.95S HX  98

STATION/POSITION SKY/WX   TEMP    WIND        PRES    WAVE   SWELL
                          AIR SEA DIR/SP/G            HT/PER HT/PER
                          (F)     (DEG/KT/KT) (MB)    (FT/S) (FT/S)
SHELL POINT                87     180/  8/ 10   N/A
KEATON BEACH               82     220/  5/  6 1014.4F
CEDAR KEY                  84     240/  4/  6 1014.7F
FERNANDINA                 87 87  150/  7/ 11 1013.3F
30.7N   81.3W                 87                N/A     2/ 5
MAYPORT                    87 87  130/  7/ 13   N/A
31.4N   80.9W              83 85  110/ 16/ 17 1014.1F   4/ 6   2/12
ST AUGUSTINE               83     150/ 10/ 11 1014.6F

$$
FLZ040-043>046-052-053-057-058-063-144-012300-
INTERIOR CENTRAL FLORIDA

CITY           SKY/WX    TMP DP  RH WIND       PRES   REMARKS
OCALA          MOSUNNY   90  64  43 NW5       29.96S
LEESBURG       MOSUNNY   92  69  47 CALM      29.94F HX  97
SANFORD        PTSUNNY   87  76  69 E13       29.94F HX  97
ORLANDO EXEC   PTSUNNY   86  75  69 E7        29.94S HX  95
ORLANDO INTL   CLOUDY    82  76  81 E9        29.94F
KISSIMMEE      PTSUNNY   84  75  74 E9        29.95R
WINTER HAVEN   CLOUDY    92  69  47 N12       29.94F HX  97
LAKELAND       MOSUNNY   91  68  46 NW6       29.93F HX  95
BARTOW         FAIR      91  66  43 NW6       29.93F
OKEECHOBEE     SUNNY     90  72  55 MISG      29.92F HX  96

$$
FLZ041-047-054-059-064-141-147-012300-
EAST CENTRAL FLORIDA

CITY           SKY/WX    TMP DP  RH WIND       PRES   REMARKS
DAYTONA BEACH  LGT RAIN  83  77  82 VRB3      29.95F
DELAND         MOCLDY    90  75  62 E14       29.94F HX 100
NEW SMYRNA BEA MOSUNNY   88  77  70 SE12      29.96  HX 100
JFK SPACE CTR  CLOUDY    76  76 100 SE6       29.95F
TITUSVILLE     PTSUNNY   75  75 100 SE9       29.96
CAPE CANAVERAL CLOUDY    77  75  94 S5        29.95F
PATRICK AFB    CLOUDY    81  73  78 NW7       29.96S
MELBOURNE      CLOUDY    80  73  79 NW9       29.95R
VERO BEACH     MOSUNNY   86  75  69 E13       29.95R HX  95
FT PIERCE      SUNNY     87  75  67 E14       29.94S HX  96
STUART         PTSUNNY   86  73  66 E12       29.95S

STATION/POSITION SKY/WX   TEMP    WIND        PRES    WAVE   SWELL
                          AIR SEA DIR/SP/G            HT/PER HT/PER
                          (F)     (DEG/KT/KT) (MB)    (FT/S) (FT/S)
28.5N   80.2W              84 83  110/  8/ 10 1014.6F
28.9N   78.5W              83 85  110/ 10/ 10 1015.5S   2/ 7   2/ 7
TRIDENT PIER               78 86  340/  3/  6 1014.4F
28.4N   80.5W                 84                N/A     2/ 3
27.6N   80.2W                 84                N/A     2/ 8

$$
FLZ050-056-061-142-242-148-248-149-249-151-251-155-255-
160-260-012300-
WEST CENTRAL FLORIDA

CITY           SKY/WX    TMP DP  RH WIND       PRES   REMARKS
CRYSTAL RIVER  FAIR      86  68  54 W8        29.95F
INVERNESS      FAIR      90  61  37 CALM      29.95S
BROOKSVILLE    MOSUNNY   90  66  45 NW9       29.95S
ZEPHYRHILLS    FAIR      91  66  43 N5        29.94F
CLEARWATER     MOSUNNY   88  68  51 NW9       29.93F
TAMPA INTL     CLOUDY    90  67  46 NW9       29.93F
TAMPA EXEC     CLOUDY    84  79  84 MISG      29.93F HX  96
MACDILL AFB    SUNNY     91  72  54 NW8       29.93F HX  98
ST PETERSBURG  MOSUNNY   90  68  48 N6        29.92F
SARASOTA       PTSUNNY   91  70  49 NW10      29.92F HX  96
VENICE         FAIR      88  68  51 NW13      29.94F

STATION/POSITION SKY/WX   TEMP    WIND        PRES    WAVE   SWELL
                          AIR SEA DIR/SP/G            HT/PER HT/PER
                          (F)     (DEG/KT/KT) (MB)    (FT/S) (FT/S)
CEDAR KEY                  84     240/  4/  6 1014.7F
28.5N   84.5W              83 86  290/  6/  8 1014.5F   1/ 6
27.3N   84.3W                 88                N/A     0
CLEARWATER BEACH           85 89  330/ 12/ 13 1013.7S
MIDDLE TAMPA BAY           88     230/  4/ 10 1014.0R
VENICE                     86 90  320/ 11/ 12 1013.2F

$$
FLZ066-069-070-075>078-162-262-165-265-012300-
SOUTHWEST FLORIDA AND KEYS

CITY           SKY/WX    TMP DP  RH WIND       PRES   REMARKS
PUNTA GORDA    CLOUDY    85  74  69 NW7       29.95S
FT MYERS       CLOUDY    87  74  64 CALM      29.92S HX  95
SOUTHWEST INTL MOSUNNY   89  73  59 NW7       29.92S HX  97
NAPLES         MOSUNNY   89  73  59 W9        29.92S HX  97
MARCO ISLAND   PTCLDY    90  73  58 W7        29.93R HX  98
MARATHON       PTSUNNY   89  76  65 SE3       29.92F HX 100
KEY WEST NAS   PTSUNNY   89  75  63 VRB3      29.92F HX  99
KEY WEST INTL  PTSUNNY   88  74  63 W7        29.92F HX  96

STATION/POSITION SKY/WX   TEMP    WIND        PRES    WAVE   SWELL
                          AIR SEA DIR/SP/G            HT/PER HT/PER
                          (F)     (DEG/KT/KT) (MB)    (FT/S) (FT/S)
VENICE                     86 90  320/ 11/ 12 1013.2F
NAPLES                     87 94  300/  6/  8 1013.9F
DRY TORTUGAS               86     320/  4/  4 1013.4F
NW FL BAY                  87     320/  3/  4 1013.9F
SAND KEY                   83      20/  9/ 12 1013.2F
SOMBRERO KEY               89      50/  1/  2 1014.1F
LONG KEY                   88 92  280/  1/  2 1013.9F
MOLASSES REEF              86 88   90/  2/  2 1013.7F

$$
FLZ067-068-071>074-168-172>174-012300-
SOUTHEAST FLORIDA

CITY           SKY/WX    TMP DP  RH WIND       PRES   REMARKS
W PALM BEACH   PTSUNNY   88  76  67 SE10      29.94S HX  99
FT LAUDER-EXEC MOSUNNY   86  76  71 E9        29.93S HX  96
FT LAUDERDALE  PTSUNNY   87  75  67 E12       29.93S HX  96
POMPANO BEACH    N/A    N/A N/A N/A MISG      29.93F
PEMBROKE PINES PTSUNNY   84  73  69 NW6       29.95R
OPA LOCKA      PTSUNNY   87  74  64 SE8       29.94R HX  95
MIAMI          PTSUNNY   87  73  62 E7        29.95R
WEST KENDALL   PTSUNNY   84  74  71 W7        29.95R
HOMESTEAD      MOSUNNY   88  73  62 NW2       29.94S HX  96

STATION/POSITION SKY/WX   TEMP    WIND        PRES    WAVE   SWELL
                          AIR SEA DIR/SP/G            HT/PER HT/PER
                          (F)     (DEG/KT/KT) (MB)    (FT/S) (FT/S)
PORT EVERGLADES            87      90/  5/ 10 1013.4
VIRGINIA KEY               86 89  100/  6/  9   N/A
LAKE WORTH                 85 86  110/ 10/ 12 1013.7R
FOWEY ROCKS                86 87  110/  7/  8 1014.3R
SETTLEMENT POINT           83      90/  7/  8 1014.8F

$$





U.S. Dept. of Commerce
NOAA National Weather Service
1325 East West Highway
Silver Spring, MD 20910
E-mail: w-nws.webmaster@noaa.gov
Page last modified: May 16, 2007
NATIONAL WEATHER SERVICE: for Safety, for Work, for Fun - FOR LIFE